AIC766 VAAH-VIDP

Flight info

Callsign AIC766
Flight time N/A
Altitude 39000
Route UUD1B UUD A347 UKASO UKASO6F
Aircraft A20N/M-SDE2E3FGHIRWXY/LB1

Departure

Time N/A
Airport Sardar Vallabh Patel International Airport (VAAH)

Arrival

Time 2026-05-05 19:17
Airport Indira Gandhi International Airport (VIDP)
Time Latitude Longitude Altitude Speed Heading
2026-05-05 18:40 25.81396 74.66295 38903 ft 470 kts 22°
2026-05-05 18:40 25.87043 74.69960 38903 ft 470 kts 22°
2026-05-05 18:41 25.92679 74.73624 38906 ft 470 kts 22°
2026-05-05 18:41 25.98281 74.77269 38896 ft 470 kts 22°
2026-05-05 18:42 26.03924 74.80945 38896 ft 470 kts 22°
2026-05-05 18:42 26.09572 74.84628 38896 ft 470 kts 22°
2026-05-05 18:43 26.15214 74.88312 38895 ft 471 kts 22°
2026-05-05 18:43 26.20863 74.92004 38895 ft 471 kts 22°
2026-05-05 18:44 26.26473 74.95675 38896 ft 471 kts 22°
2026-05-05 18:44 26.32131 74.99381 38903 ft 472 kts 22°
2026-05-05 18:45 26.37789 75.03092 38905 ft 472 kts 22°
2026-05-05 18:45 26.43456 75.06812 38911 ft 473 kts 22°
2026-05-05 18:46 26.49127 75.10528 38910 ft 473 kts 22°
2026-05-05 18:46 26.54770 75.14220 38916 ft 473 kts 22°
2026-05-05 18:47 26.60453 75.17942 38915 ft 474 kts 22°
2026-05-05 18:47 26.66130 75.21667 38921 ft 474 kts 22°
2026-05-05 18:48 26.71823 75.25407 38922 ft 474 kts 22°
2026-05-05 18:48 26.77468 75.29119 38926 ft 474 kts 22°
2026-05-05 18:49 26.83165 75.32870 38925 ft 474 kts 22°
2026-05-05 18:49 26.88843 75.36614 38917 ft 473 kts 22°
2026-05-05 18:50 26.94506 75.40351 38919 ft 473 kts 22°
2026-05-05 18:50 27.00170 75.44093 38917 ft 473 kts 22°
2026-05-05 18:51 27.05795 75.47815 38898 ft 471 kts 22°
2026-05-05 18:51 27.08603 75.49675 38569 ft 471 kts 22°
2026-05-05 18:51 27.11448 75.51557 37805 ft 474 kts 22°
2026-05-05 18:52 27.14306 75.53445 36921 ft 479 kts 22°
2026-05-05 18:52 27.17191 75.55352 35968 ft 485 kts 23°
2026-05-05 18:52 27.20098 75.57279 34905 ft 486 kts 23°
2026-05-05 18:52 27.23022 75.59220 33814 ft 488 kts 24°
2026-05-05 18:53 27.25938 75.61157 32661 ft 486 kts 24°
2026-05-05 18:53 27.28844 75.63089 31558 ft 484 kts 25°
2026-05-05 18:53 27.31694 75.64982 30528 ft 480 kts 25°
2026-05-05 18:53 27.34537 75.66875 29892 ft 467 kts 25°
2026-05-05 18:54 27.37276 75.68705 29345 ft 451 kts 25°
2026-05-05 18:54 27.39931 75.70479 28776 ft 437 kts 25°
2026-05-05 18:54 27.42502 75.72196 28235 ft 423 kts 25°
2026-05-05 18:54 27.44997 75.73861 27704 ft 412 kts 25°
2026-05-05 18:55 27.47506 75.75528 27180 ft 431 kts 26°
2026-05-05 18:55 27.50099 75.77246 26745 ft 444 kts 26°
2026-05-05 18:55 27.52769 75.79026 26309 ft 445 kts 26°
2026-05-05 18:55 27.55439 75.80812 25554 ft 448 kts 27°
2026-05-05 18:56 27.58118 75.82606 24885 ft 447 kts 27°
2026-05-05 18:56 27.60772 75.84386 24306 ft 441 kts 27°
2026-05-05 18:56 27.63425 75.86010 24028 ft 426 kts 21°
2026-05-05 18:56 27.66117 75.87186 23934 ft 407 kts 14°
2026-05-05 18:57 27.68815 75.88082 23854 ft 403 kts 13°
2026-05-05 18:57 27.71499 75.88982 23117 ft 404 kts 13°
2026-05-05 18:57 27.74212 75.89899 21908 ft 409 kts 13°
2026-05-05 18:57 27.76965 75.90830 20790 ft 415 kts 13°
2026-05-05 18:58 27.78799 75.91450 20312 ft 414 kts 13°
2026-05-05 18:58 27.81536 75.92377 19832 ft 406 kts 13°
2026-05-05 18:58 27.85042 75.93568 19452 ft 389 kts 13°
2026-05-05 18:58 27.87602 75.94435 18969 ft 383 kts 13°
2026-05-05 18:59 27.90145 75.95295 18459 ft 378 kts 13°
2026-05-05 18:59 27.92643 75.96139 17895 ft 374 kts 13°
2026-05-05 18:59 27.94289 75.96695 17608 ft 368 kts 13°
2026-05-05 18:59 27.97531 75.97793 16965 ft 360 kts 13°
2026-05-05 19:00 27.99122 75.98332 16659 ft 357 kts 13°
2026-05-05 19:00 28.02241 75.99390 16024 ft 350 kts 13°
2026-05-05 19:00 28.03811 75.99922 15706 ft 347 kts 13°
2026-05-05 19:00 28.06845 76.00950 15131 ft 340 kts 13°
2026-05-05 19:01 28.08380 76.01470 14995 ft 344 kts 13°
2026-05-05 19:01 28.11463 76.02512 14908 ft 349 kts 13°
2026-05-05 19:01 28.13785 76.03300 14902 ft 348 kts 13°
2026-05-05 19:01 28.15319 76.03821 14902 ft 348 kts 13°
2026-05-05 19:02 28.17643 76.04611 14900 ft 349 kts 13°
2026-05-05 19:02 28.19968 76.05407 14901 ft 349 kts 15°
2026-05-05 19:02 28.22738 76.07279 14820 ft 355 kts 40°
2026-05-05 19:02 28.24179 76.09529 14735 ft 353 kts 58°
2026-05-05 19:03 28.24916 76.11192 14663 ft 345 kts 59°
2026-05-05 19:03 28.25958 76.13580 14534 ft 330 kts 59°
2026-05-05 19:03 28.26932 76.15813 14381 ft 311 kts 58°
2026-05-05 19:03 28.27869 76.17953 14117 ft 298 kts 58°
2026-05-05 19:04 28.28794 76.20045 13658 ft 294 kts 57°
2026-05-05 19:04 28.29712 76.22108 13085 ft 291 kts 58°
2026-05-05 19:04 28.30621 76.24153 12545 ft 289 kts 58°
2026-05-05 19:04 28.31520 76.26181 12005 ft 287 kts 58°
2026-05-05 19:05 28.32410 76.28192 11490 ft 284 kts 58°
2026-05-05 19:05 28.33291 76.30182 10983 ft 281 kts 58°
2026-05-05 19:05 28.34156 76.32142 10691 ft 270 kts 58°
2026-05-05 19:05 28.34959 76.33969 10496 ft 256 kts 58°
2026-05-05 19:06 28.35749 76.35761 10066 ft 253 kts 58°
2026-05-05 19:06 28.36540 76.37545 9595 ft 252 kts 58°
2026-05-05 19:06 28.37328 76.39321 9217 ft 251 kts 59°
2026-05-05 19:06 28.38110 76.41088 8900 ft 250 kts 59°
2026-05-05 19:07 28.38885 76.42846 8562 ft 249 kts 59°
2026-05-05 19:07 28.39658 76.44598 8194 ft 248 kts 59°
2026-05-05 19:07 28.40427 76.46343 7798 ft 247 kts 60°
2026-05-05 19:07 28.41182 76.48059 7425 ft 246 kts 60°
2026-05-05 19:08 28.41945 76.49791 7064 ft 245 kts 60°
2026-05-05 19:08 28.42712 76.51523 6772 ft 244 kts 58°
2026-05-05 19:08 28.43596 76.53147 6584 ft 251 kts 54°
2026-05-05 19:08 28.44637 76.54932 6486 ft 281 kts 54°
2026-05-05 19:09 28.45719 76.56795 6363 ft 281 kts 54°
2026-05-05 19:09 28.46787 76.58653 6243 ft 280 kts 54°
2026-05-05 19:09 28.47845 76.60507 6122 ft 280 kts 55°
2026-05-05 19:09 28.48901 76.62367 5997 ft 279 kts 55°
2026-05-05 19:10 28.49932 76.64188 5874 ft 278 kts 55°
2026-05-05 19:10 28.50977 76.66034 5752 ft 278 kts 55°
2026-05-05 19:10 28.52024 76.67883 5628 ft 277 kts 55°
2026-05-05 19:10 28.53061 76.69713 5510 ft 276 kts 55°
2026-05-05 19:11 28.54104 76.71554 5385 ft 275 kts 55°
2026-05-05 19:11 28.55134 76.73375 5261 ft 274 kts 56°
2026-05-05 19:11 28.56151 76.75170 4966 ft 277 kts 56°
2026-05-05 19:11 28.57218 76.77053 4585 ft 277 kts 56°
2026-05-05 19:12 28.58251 76.78879 4223 ft 274 kts 56°
2026-05-05 19:12 28.59283 76.80704 3861 ft 272 kts 56°
2026-05-05 19:12 28.60287 76.82482 3499 ft 271 kts 57°
2026-05-05 19:12 28.61274 76.84288 3155 ft 268 kts 64°
2026-05-05 19:13 28.61648 76.85688 3058 ft 264 kts 84°
2026-05-05 19:13 28.61473 76.87747 3008 ft 259 kts 105°
2026-05-05 19:13 28.61032 76.89672 2996 ft 244 kts 104°
2026-05-05 19:13 28.60637 76.91496 2997 ft 229 kts 104°
2026-05-05 19:14 28.60233 76.93196 2996 ft 216 kts 105°
2026-05-05 19:14 28.59867 76.94800 3001 ft 212 kts 105°
2026-05-05 19:14 28.59501 76.96388 2847 ft 206 kts 105°
2026-05-05 19:14 28.59134 76.97988 2570 ft 206 kts 105°
2026-05-05 19:15 28.58783 76.99520 2305 ft 199 kts 105°
2026-05-05 19:15 28.58445 77.00990 2039 ft 183 kts 104°
2026-05-05 19:15 28.58142 77.02311 1851 ft 164 kts 104°
2026-05-05 19:15 28.57867 77.03507 1651 ft 147 kts 104°
2026-05-05 19:16 28.57614 77.04610 1456 ft 144 kts 105°
2026-05-05 19:16 28.57360 77.05718 1266 ft 145 kts 105°
2026-05-05 19:16 28.57105 77.06825 1073 ft 145 kts 105°
2026-05-05 19:16 28.56848 77.07940 848 ft 146 kts 104°
2026-05-05 19:17 28.56600 77.09009 774 ft 129 kts 104°
2026-05-05 19:17 28.56427 77.09772 774 ft 71 kts 104°
2026-05-05 19:17 28.56352 77.10099 773 ft 8 kts 106°
2026-05-05 19:17 28.56334 77.10148 773 ft 18 kts 105°
2026-05-05 19:18 28.56291 77.10356 773 ft 34 kts 104°
2026-05-05 19:18 28.56229 77.10629 773 ft 36 kts 103°
2026-05-05 19:18 28.56137 77.10862 773 ft 28 kts 131°
2026-05-05 19:18 28.56043 77.10971 772 ft 8 kts 144°
2026-05-05 19:19 28.55982 77.10967 773 ft 10 kts 217°
2026-05-05 19:19 28.55978 77.10890 773 ft 12 kts 287°
2026-05-05 19:19 28.56002 77.10790 773 ft 14 kts 284°
2026-05-05 19:19 28.56031 77.10670 773 ft 17 kts 285°
2026-05-05 19:20 28.56062 77.10529 773 ft 20 kts 283°
2026-05-05 19:20 28.56088 77.10407 773 ft 16 kts 283°
2026-05-05 19:20 28.56121 77.10273 773 ft 19 kts 284°
2026-05-05 19:20 28.56156 77.10117 773 ft 22 kts 284°
2026-05-05 19:21 28.56196 77.09944 773 ft 24 kts 285°
2026-05-05 19:21 28.56238 77.09757 773 ft 26 kts 283°
2026-05-05 19:21 28.56286 77.09554 773 ft 27 kts 285°
2026-05-05 19:21 28.56336 77.09339 773 ft 29 kts 282°
2026-05-05 19:22 28.56362 77.09215 773 ft 0 kts 286°